Hettinger, ND

2:07 AM MDT on July 21, 2017 (GMT -0600)
Hettinger Municipal

Weather History for KHEI - March, 2013

Change the Weather History Date:

Wednesday, March 6, 2013

  Actual Average Record
Temperature  
Mean Temperature 20 °F -  
Max Temperature 29 °F 37 °F 72 °F (2016)
Min Temperature 10 °F 15 °F -14 °F (2003)
Degree Days  
Heating Degree Days 45 39  
Month to date heating degree days 217 239  
Since 1 July heating degree days 6175 6555  
Cooling Degree Days 0 0  
Month to date cooling degree days 0 0  
Year to date cooling degree days 0 0  
Moisture  
Dew Point 14 °F    
Average Humidity 83    
Maximum Humidity 92    
Minimum Humidity 69    
Precipitation  
Precipitation 0.00 in 0.02 in 0.03 in (2005)
Month to date precipitation 0.19 0.09  
Year to date precipitation 0.32 0.82  
Sea Level Pressure  
Sea Level Pressure 30.16 in    
Wind  
Wind Speed 17 mph (ESE)    
Max Wind Speed 26 mph    
Max Gust Speed 33 mph    
Visibility 9 miles    
Events      
T = Trace of Precipitation, MM = Missing Value Source: NWS Daily Summary

Daily Weather History Graph

Daily Weather History Graph

Search for Another Location

Airport or City:

Trip Planner

Search our weather history database for the weather conditions in past years. The results will help you decide how hot, cold, wet, or windy it might be!

Date:

Astronomy

Mar. 06, 2013 Rise Set
Actual Time 6:19 AM MST 5:44 PM MST
Civil Twilight 5:49 AM MST 6:14 PM MST
Nautical Twilight 5:15 AM MST 6:49 PM MST
Astronomical Twilight 4:40 AM MST 7:24 PM MST
Moon 2:44 AM MST (3/6) 12:15 PM MST (3/6)
Length of Visible Light 12h 24m
Length of Day
11h 24m
Waning Crescent, 29% of the Moon is Illuminated
Mar 6
Waning Crescent
Mar 11
New
Mar 19
First Quarter
Mar 27
Full
Apr 2
Last Quarter

Hourly Weather History & Observations

Time (MST) Temp. Windchill Dew Point Humidity Pressure Visibility Wind Dir Wind Speed Gust Speed Precip Events Conditions
12:53 AM 12.0 °F 0.5 °F 8.1 °F 84% 30.38 in 10.0 mi ESE 8.1 mph - N/A   Clear
1:53 AM 10.9 °F -1.8 °F 8.1 °F 88% 30.36 in 10.0 mi ESE 9.2 mph - N/A   Clear
2:53 AM 10.0 °F -2.9 °F 7.0 °F 87% 30.35 in 10.0 mi ESE 9.2 mph - N/A   Clear
3:26 AM 10.4 °F -2.4 °F 6.8 °F 85% 30.21 in 9.0 mi ESE 9.2 mph - N/A   Scattered Clouds
3:37 AM 10.4 °F -2.4 °F 6.8 °F 85% 30.21 in 8.0 mi ESE 9.2 mph - N/A   Mostly Cloudy
3:53 AM 10.9 °F -2.6 °F 7.0 °F 84% 30.35 in 9.0 mi ESE 10.4 mph - N/A   Overcast
4:53 AM 12.0 °F -4.0 °F 9.0 °F 88% 30.34 in 7.0 mi ESE 15.0 mph - N/A   Overcast
5:53 AM 12.9 °F -2.8 °F 10.9 °F 92% 30.34 in 7.0 mi SE 15.0 mph - N/A   Overcast
6:53 AM 12.9 °F -2.8 °F 10.0 °F 88% 30.33 in 5.0 mi ESE 15.0 mph - N/A   Overcast
7:53 AM 12.9 °F -2.8 °F 10.0 °F 88% 30.31 in 7.0 mi ESE 15.0 mph - N/A   Overcast
8:53 AM 14.0 °F -0.8 °F 10.9 °F 88% 30.30 in 6.0 mi ESE 13.8 mph 23.0 mph N/A   Overcast
9:53 AM 18.0 °F 2.6 °F 15.1 °F 88% 30.26 in 10.0 mi ESE 17.3 mph - N/A   Overcast
10:53 AM 19.9 °F 4.3 °F 16.0 °F 85% 30.24 in 10.0 mi ESE 19.6 mph - N/A   Overcast
11:34 AM 23.0 °F 10.1 °F 17.6 °F 80% 30.09 in 10.0 mi ESE 15.0 mph 20.7 mph N/A   Overcast
11:53 AM 23.0 °F 8.3 °F 17.1 °F 78% 30.22 in 10.0 mi SE 19.6 mph - N/A   Overcast
12:53 PM 23.0 °F 8.7 °F 17.1 °F 78% 30.17 in 10.0 mi SE 18.4 mph 27.6 mph N/A   Overcast
1:53 PM 24.1 °F 10.6 °F 18.0 °F 77% 30.14 in 10.0 mi SE 17.3 mph 25.3 mph N/A   Overcast
2:53 PM 27.0 °F 13.9 °F 19.0 °F 72% 30.10 in 10.0 mi ESE 18.4 mph 27.6 mph N/A   Overcast
3:42 PM 28.4 °F 16.2 °F 19.4 °F 69% 29.96 in 10.0 mi ESE 17.3 mph 25.3 mph N/A   Scattered Clouds
3:53 PM 28.0 °F 16.1 °F 19.9 °F 72% 30.07 in 10.0 mi ESE 16.1 mph 25.3 mph N/A   Clear
4:53 PM 28.0 °F 16.1 °F 19.9 °F 72% 30.06 in 10.0 mi East 16.1 mph 27.6 mph N/A   Clear
5:53 PM 25.0 °F 10.6 °F 18.0 °F 75% 30.05 in 10.0 mi ESE 20.7 mph 27.6 mph N/A   Clear
6:53 PM 21.0 °F 6.2 °F 16.0 °F 81% 30.07 in 10.0 mi ESE 18.4 mph - N/A   Clear
7:21 PM 19.4 °F 3.6 °F 15.8 °F 86% 29.94 in 10.0 mi ESE 19.6 mph 26.5 mph N/A   Mostly Cloudy
7:53 PM 19.9 °F 3.2 °F 15.1 °F 81% 30.05 in 10.0 mi ESE 23.0 mph 29.9 mph N/A   Overcast
8:03 PM 19.4 °F 2.8 °F 15.8 °F 86% 29.92 in 10.0 mi ESE 21.9 mph 29.9 mph N/A   Overcast
8:53 PM 18.0 °F 3.1 °F 15.1 °F 88% 30.05 in 10.0 mi ESE 16.1 mph 26.5 mph N/A   Overcast
9:53 PM 18.0 °F 0.6 °F 16.0 °F 92% 30.01 in 10.0 mi ESE 23.0 mph 31.1 mph N/A   Overcast
10:53 PM 19.0 °F 2.7 °F 16.0 °F 88% 29.99 in 10.0 mi ESE 20.7 mph 27.6 mph N/A   Overcast
11:53 PM 19.9 °F 4.3 °F 17.1 °F 89% 29.96 in 10.0 mi ESE 19.6 mph 27.6 mph N/A   Overcast